• In Portugal
  • List of Countries
  • For 7 days
  • Water Temperature
  • Satellite Maps
  • Weather Map
  • Weather Widgets
  • user-avatar
    Login

    Hourly Weather Cisow

    Today, 23 April, Monday

    Time Temperature Precipitation Wind Pressure Humidity
    00:00 +13°C° 0 mm 2 mps 724 mmHg 73%
    01:00 +13°C° 0 mm 2 mps 724 mmHg 70%
    02:00 +13°C° 0.2 mm 2 mps 724 mmHg 72%
    03:00 +13°C° 0.2 mm 2 mps 724 mmHg 74%
    04:00 +13°C° 0.2 mm 2 mps 723 mmHg 76%
    05:00 +14°C° 0 mm 2 mps 723 mmHg 75%
    06:00 +14°C° 0 mm 3 mps 723 mmHg 75%
    07:00 +16°C° 0 mm 3 mps 723 mmHg 74%
    08:00 +18°C° 0 mm 3 mps 723 mmHg 68%
    09:00 +20°C° 0 mm 4 mps 724 mmHg 63%
    10:00 +22°C° 0 mm 4 mps 724 mmHg 57%
    11:00 +22°C° 0.2 mm 4 mps 724 mmHg 54%
    12:00 +23°C° 0.2 mm 4 mps 724 mmHg 51%
    13:00 +23°C° 0.2 mm 5 mps 724 mmHg 49%
    14:00 +22°C° 0.4 mm 4 mps 724 mmHg 55%
    15:00 +21°C° 0.4 mm 4 mps 723 mmHg 62%
    16:00 +20°C° 0.4 mm 4 mps 723 mmHg 69%
    17:00 +18°C° 0.2 mm 3 mps 723 mmHg 74%
    18:00 +17°C° 0.2 mm 3 mps 723 mmHg 78%
    19:00 +16°C° 0.2 mm 3 mps 723 mmHg 83%
    20:00 +14°C° 0.1 mm 3 mps 724 mmHg 86%
    21:00 +13°C° 0.1 mm 3 mps 724 mmHg 89%
    22:00 +12°C° 0.1 mm 3 mps 724 mmHg 91%
    23:00 +13°C° 0 mm 2 mps 724 mmHg 92%

    Tomorrow, 24 April, Tuesday

    Time Temperature Precipitation Wind Pressure Humidity
    00:00 +12°C° 0 mm 2 mps 725 mmHg 92%
    01:00 +10°C° 0 mm 2 mps 725 mmHg 93%
    02:00 +10°C° 0 mm 2 mps 725 mmHg 93%
    03:00 +9°C° 0 mm 2 mps 725 mmHg 93%
    04:00 +9°C° 0 mm 2 mps 726 mmHg 93%
    05:00 +10°C° 0 mm 2 mps 726 mmHg 88%
    06:00 +12°C° 0 mm 2 mps 726 mmHg 83%
    07:00 +13°C° 0 mm 2 mps 726 mmHg 79%
    08:00 +13°C° 0 mm 3 mps 727 mmHg 72%
    09:00 +15°C° 0 mm 4 mps 727 mmHg 65%
    10:00 +17°C° 0 mm 4 mps 727 mmHg 58%
    11:00 +18°C° 0 mm 4 mps 727 mmHg 56%
    12:00 +19°C° 0 mm 4 mps 726 mmHg 53%
    13:00 +19°C° 0 mm 4 mps 726 mmHg 51%
    14:00 +20°C° 0 mm 4 mps 726 mmHg 50%
    15:00 +20°C° 0 mm 4 mps 725 mmHg 49%
    16:00 +20°C° 0 mm 5 mps 725 mmHg 49%
    17:00 +18°C° 0 mm 4 mps 725 mmHg 55%
    18:00 +16°C° 0 mm 3 mps 724 mmHg 61%
    19:00 +15°C° 0 mm 2 mps 724 mmHg 67%
    20:00 +14°C° 0 mm 2 mps 725 mmHg 69%
    21:00 +13°C° 0 mm 2 mps 725 mmHg 71%
    22:00 +12°C° 0 mm 2 mps 725 mmHg 73%
    23:00 +12°C° 0 mm 2 mps 725 mmHg 75%

    Day after tomorrow, 25 April, Wednesday

    Time Temperature Precipitation Wind Pressure Humidity
    00:00 +11°C° 0 mm 1 mps 725 mmHg 77%
    01:00 +10°C° 0 mm 1 mps 724 mmHg 79%
    02:00 +10°C° 0 mm 1 mps 724 mmHg 79%
    03:00 +10°C° 0 mm 1 mps 724 mmHg 80%
    04:00 +9°C° 0 mm 2 mps 724 mmHg 81%
    05:00 +10°C° 0 mm 2 mps 724 mmHg 78%
    06:00 +11°C° 0 mm 3 mps 724 mmHg 75%
    07:00 +13°C° 0 mm 4 mps 724 mmHg 72%
    08:00 +15°C° 0 mm 5 mps 724 mmHg 67%
    09:00 +16°C° 0 mm 5 mps 723 mmHg 62%
    10:00 +19°C° 0 mm 6 mps 723 mmHg 56%
    11:00 +20°C° 0 mm 6 mps 723 mmHg 54%
    12:00 +21°C° 0 mm 7 mps 723 mmHg 52%
    13:00 +21°C° 0 mm 7 mps 722 mmHg 50%
    14:00 +21°C° 0.2 mm 7 mps 722 mmHg 52%
    15:00 +21°C° 0.2 mm 6 mps 722 mmHg 55%
    16:00 +20°C° 0.2 mm 6 mps 721 mmHg 58%
    17:00 +17°C° 0.4 mm 5 mps 721 mmHg 66%
    18:00 +17°C° 0.4 mm 4 mps 721 mmHg 73%
    19:00 +14°C° 0.4 mm 4 mps 721 mmHg 81%
    20:00 +13°C° 0.1 mm 3 mps 722 mmHg 84%
    21:00 +12°C° 0.1 mm 3 mps 722 mmHg 88%
    22:00 +11°C° 0.1 mm 3 mps 723 mmHg 91%
    23:00 +12°C° 0 mm 2 mps 723 mmHg 92%

    26 April, Thursday

    Time Temperature Precipitation Wind Pressure Humidity
    00:00 +12°C° 0 mm 2 mps 723 mmHg 93%
    01:00 +10°C° 0 mm 2 mps 723 mmHg 93%
    02:00 +10°C° 0 mm 2 mps 723 mmHg 94%
    03:00 +9°C° 0 mm 2 mps 723 mmHg 95%
    04:00 +9°C° 0 mm 2 mps 723 mmHg 95%
    05:00 +9°C° 0.1 mm 2 mps 724 mmHg 91%
    06:00 +10°C° 0.1 mm 2 mps 724 mmHg 87%
    07:00 +11°C° 0.1 mm 3 mps 724 mmHg 84%
    08:00 +12°C° 0.2 mm 4 mps 724 mmHg 76%
    09:00 +13°C° 0.2 mm 5 mps 724 mmHg 67%
    10:00 +14°C° 0.2 mm 6 mps 724 mmHg 59%
    11:00 +15°C° 0 mm 6 mps 724 mmHg 56%
    12:00 +15°C° 0 mm 6 mps 724 mmHg 52%
    13:00 +15°C° 0 mm 7 mps 724 mmHg 49%
    14:00 +15°C° 0 mm 6 mps 724 mmHg 49%
    15:00 +14°C° 0 mm 6 mps 724 mmHg 49%
    16:00 +14°C° 0 mm 6 mps 725 mmHg 50%
    17:00 +12°C° 0 mm 5 mps 725 mmHg 55%
    18:00 +11°C° 0 mm 4 mps 725 mmHg 60%
    19:00 +9°C° 0 mm 3 mps 725 mmHg 65%
    20:00 +8°C° 0 mm 2 mps 726 mmHg 67%
    21:00 +7°C° 0 mm 2 mps 726 mmHg 69%
    22:00 +6°C° 0 mm 2 mps 726 mmHg 71%
    23:00 +6°C° 0 mm 2 mps 726 mmHg 72%

    27 April, Friday

    Time Temperature Precipitation Wind Pressure Humidity
    00:00 +5°C° 0 mm 2 mps 726 mmHg 73%
    01:00 +5°C° 0 mm 2 mps 726 mmHg 73%
    02:00 +5°C° 0 mm 2 mps 726 mmHg 74%
    03:00 +4°C° 0 mm 2 mps 727 mmHg 75%
    04:00 +4°C° 0 mm 2 mps 727 mmHg 76%
    05:00 +5°C° 0 mm 2 mps 727 mmHg 73%
    06:00 +7°C° 0 mm 2 mps 727 mmHg 70%
    07:00 +8°C° 0 mm 2 mps 727 mmHg 67%
    08:00 +9°C° 0 mm 2 mps 728 mmHg 61%
    09:00 +12°C° 0 mm 2 mps 728 mmHg 56%
    10:00 +13°C° 0 mm 2 mps 728 mmHg 50%
    11:00 +14°C° 0 mm 2 mps 728 mmHg 48%
    12:00 +14°C° 0 mm 1 mps 727 mmHg 46%
    13:00 +15°C° 0 mm 1 mps 727 mmHg 44%
    14:00 +15°C° 0 mm 1 mps 727 mmHg 44%
    15:00 +15°C° 0 mm 1 mps 726 mmHg 45%
    16:00 +15°C° 0 mm 1 mps 726 mmHg 45%
    17:00 +14°C° 0 mm 1 mps 726 mmHg 53%
    18:00 +12°C° 0 mm 2 mps 725 mmHg 60%
    19:00 +10°C° 0 mm 2 mps 725 mmHg 68%
    20:00 +9°C° 0 mm 2 mps 725 mmHg 70%
    21:00 +8°C° 0 mm 2 mps 725 mmHg 73%
    22:00 +7°C° 0 mm 2 mps 725 mmHg 75%
    23:00 +7°C° 0 mm 2 mps 725 mmHg 76%

    28 April, Saturday

    Time Temperature Precipitation Wind Pressure Humidity
    00:00 +6°C° 0 mm 2 mps 725 mmHg 76%
    01:00 +6°C° 0 mm 2 mps 724 mmHg 77%
    02:00 +6°C° 0 mm 2 mps 724 mmHg 76%
    03:00 +6°C° 0 mm 2 mps 724 mmHg 75%
    04:00 +6°C° 0 mm 2 mps 723 mmHg 74%
    05:00 +7°C° 0 mm 2 mps 723 mmHg 71%
    06:00 +9°C° 0 mm 3 mps 723 mmHg 69%
    07:00 +10°C° 0 mm 3 mps 723 mmHg 66%
    08:00 +12°C° 0 mm 3 mps 723 mmHg 64%
    09:00 +14°C° 0 mm 4 mps 723 mmHg 62%
    10:00 +17°C° 0 mm 4 mps 723 mmHg 60%
    11:00 +18°C° 0 mm 4 mps 723 mmHg 59%
    12:00 +19°C° 0 mm 4 mps 722 mmHg 59%
    13:00 +20°C° 0 mm 4 mps 722 mmHg 58%
    14:00 +19°C° 0 mm 3 mps 722 mmHg 60%
    15:00 +19°C° 0 mm 3 mps 721 mmHg 63%
    16:00 +19°C° 0 mm 2 mps 721 mmHg 65%
    17:00 +18°C° 0 mm 2 mps 721 mmHg 70%
    18:00 +17°C° 0 mm 2 mps 720 mmHg 74%
    19:00 +16°C° 0 mm 2 mps 720 mmHg 79%
    20:00 +15°C° 0 mm 2 mps 720 mmHg 80%
    21:00 +15°C° 0 mm 2 mps 720 mmHg 81%
    22:00 +14°C° 0 mm 2 mps 720 mmHg 83%
    23:00 +14°C° 0.2 mm 2 mps 719 mmHg 85%
    Show more